| time (UTC) | temp C | wind direction | speed KPH | gust KPH | rain 1hr cm | rain 24hr cm | rain mn cm | humidity % | barometer mb |
| 20260506081530 | 4 | 192 | 1.6 | 6.4 | 0.00 | 0.10 | 0.00 | 76 | 1015.4 |
| 20260506073023 | 5 | 327 | 3.2 | 6.4 | 0.00 | 0.10 | 0.00 | 77 | 1015.7 |
| 20260506071525 | 5 | 311 | 3.2 | 6.4 | 0.00 | 0.10 | 0.00 | 80 | 1015.6 |
| 20260506061524 | 6 | 303 | 4.8 | 11.3 | 0.00 | 0.10 | 0.00 | 79 | 1015.5 |
| 20260506044526 | 5 | 298 | 9.7 | 19.3 | 0.03 | 0.10 | 0.10 | 82 | 1015.4 |
| 20260506043002 | 5 | 295 | 6.4 | 12.9 | 0.08 | 0.10 | 0.10 | 84 | 1015.1 |
| 20260506041504 | 5 | 309 | 9.7 | 17.7 | 0.10 | 0.10 | 0.10 | 85 | 1015.2 |
| 20260506040004 | 5 | 318 | 9.7 | 20.9 | 0.08 | 0.08 | 0.08 | 85 | 1014.8 |
| 20260506034518 | 5 | 302 | 11.3 | 25.7 | 0.08 | 0.08 | 0.08 | 84 | 1015.0 |
| 20260506033010 | 6 | 286 | 14.5 | 27.4 | 0.03 | 0.03 | 0.03 | 77 | 1014.3 |
| 20260506031518 | 7 | 331 | 11.3 | 32.2 | 0.00 | 0.00 | 0.00 | 74 | 1014.2 |
| 20260506030013 | 7 | 318 | 17.7 | 29.0 | 0.00 | 0.00 | 0.00 | 71 | 1014.1 |
| 20260506024510 | 8 | 327 | 11.3 | 22.5 | 0.00 | 0.00 | 0.00 | 67 | 1013.9 |
| 20260506023012 | 8 | 295 | 6.4 | 22.5 | 0.00 | 0.00 | 0.00 | 63 | 1013.6 |
| 20260506021512 | 8 | 281 | 0.0 | 3.2 | 0.00 | 0.00 | 0.00 | 63 | 1013.2 |
| 20260506020020 | 9 | 298 | 1.6 | 4.8 | 0.00 | 0.00 | 0.00 | 61 | 1012.8 |
| 20260506014504 | 10 | 260 | 1.6 | 4.8 | 0.00 | 0.00 | 0.00 | 61 | 1012.8 |
| 20260506013009 | 10 | 285 | 0.0 | 4.8 | 0.00 | 0.00 | 0.00 | 60 | 1012.5 |
| 20260506011510 | 10 | 313 | 4.8 | 14.5 | 0.00 | 0.00 | 0.00 | 57 | 1012.5 |
| 20260506010020 | 11 | 300 | 6.4 | 16.1 | 0.00 | 0.00 | 0.00 | 52 | 1012.7 |
| 20260506004521 | 11 | 218 | 6.4 | 14.5 | 0.00 | 0.00 | 0.00 | 55 | 1012.4 |
| 20260506003005 | 11 | 211 | 8.0 | 12.9 | 0.00 | 0.00 | 0.00 | 53 | 1012.4 |
| 20260506001505 | 12 | 195 | 4.8 | 14.5 | 0.00 | 0.00 | 0.00 | 51 | 1012.3 |
| 20260506000013 | 13 | 202 | 3.2 | 14.5 | 0.00 | 0.00 | 0.00 | 49 | 1012.3 |
| 20260505234517 | 13 | 94 | 12.9 | 24.1 | 0.00 | 0.00 | 0.00 | 49 | 1012.3 |
| 20260505233022 | 13 | 259 | 9.7 | 22.5 | 0.00 | 0.00 | 0.00 | 46 | 1012.2 |
| 20260505231504 | 13 | 184 | 4.8 | 16.1 | 0.00 | 0.00 | 0.00 | 48 | 1012.2 |
| 20260505230032 | 12 | 204 | 11.3 | 17.7 | 0.00 | 0.00 | 0.00 | 54 | 1012.2 |
| 20260505224515 | 11 | 294 | 4.8 | 11.3 | 0.00 | 0.00 | 0.00 | 59 | 1012.4 |
| 20260505223022 | 10 | 183 | 3.2 | 16.1 | 0.00 | 0.00 | 0.00 | 66 | 1013.0 |
| 20260505221523 | 11 | 144 | 11.3 | 30.6 | 0.00 | 0.00 | 0.00 | 57 | 1012.9 |
| 20260505220010 | 12 | 195 | 8.0 | 27.4 | 0.00 | 0.00 | 0.00 | 56 | 1013.0 |
| 20260505214519 | 13 | 248 | 9.7 | 24.1 | 0.00 | 0.00 | 0.00 | 51 | 1012.8 |
| 20260505213025 | 14 | 240 | 8.0 | 19.3 | 0.00 | 0.00 | 0.00 | 52 | 1012.8 |
| 20260505211522 | 14 | 335 | 9.7 | 20.9 | 0.00 | 0.00 | 0.00 | 54 | 1013.0 |
| 20260505210030 | 12 | 258 | 8.0 | 22.5 | 0.00 | 0.00 | 0.00 | 55 | 1013.0 |
| 20260505204512 | 13 | 306 | 9.7 | 17.7 | 0.00 | 0.00 | 0.00 | 56 | 1013.2 |
| 20260505203020 | 13 | 293 | 6.4 | 19.3 | 0.00 | 0.00 | 0.00 | 56 | 1013.4 |
| 20260505201521 | 12 | 314 | 6.4 | 17.7 | 0.00 | 0.00 | 0.00 | 60 | 1013.4 |
| 20260505200033 | 12 | 299 | 6.4 | 24.1 | 0.00 | 0.00 | 0.00 | 59 | 1013.2 |
| 20260505194526 | 12 | 125 | 11.3 | 19.3 | 0.00 | 0.00 | 0.00 | 62 | 1013.3 |
| 20260505193011 | 11 | 114 | 11.3 | 24.1 | 0.00 | 0.00 | 0.00 | 74 | 1013.6 |
| 20260505191520 | 9 | 169 | 11.3 | 25.7 | 0.00 | 0.00 | 0.00 | 84 | 1013.6 |
| 20260505190004 | 10 | 160 | 12.9 | 22.5 | 0.00 | 0.00 | 0.00 | 69 | 1013.7 |
| 20260505184508 | 12 | 173 | 17.7 | 35.4 | 0.00 | 0.00 | 0.00 | 53 | 1013.7 |
| 20260505183011 | 13 | 190 | 12.9 | 24.1 | 0.00 | 0.00 | 0.00 | 51 | 1013.4 |
| 20260505181516 | 13 | 173 | 9.7 | 24.1 | 0.00 | 0.00 | 0.00 | 52 | 1013.6 |
| 20260505180004 | 12 | 184 | 11.3 | 20.9 | 0.00 | 0.00 | 0.00 | 52 | 1013.6 |
| 20260505174508 | 13 | 150 | 6.4 | 17.7 | 0.00 | 0.00 | 0.00 | 48 | 1013.8 |
| 20260505173030 | 12 | 151 | 6.4 | 14.5 | 0.00 | 0.00 | 0.00 | 53 | 1013.7 |
| 20260505171516 | 12 | 193 | 6.4 | 14.5 | 0.00 | 0.00 | 0.00 | 54 | 1014.1 |
| 20260505170025 | 11 | 211 | 3.2 | 8.0 | 0.00 | 0.00 | 0.00 | 55 | 1014.0 |
| 20260505164503 | 10 | 316 | 3.2 | 12.9 | 0.00 | 0.00 | 0.00 | 58 | 1013.9 |
| 20260505163013 | 9 | 315 | 3.2 | 14.5 | 0.00 | 0.00 | 0.00 | 60 | 1014.1 |
| 20260505161514 | 9 | 310 | 6.4 | 19.3 | 0.00 | 0.00 | 0.00 | 59 | 1014.6 |
| 20260505153010 | 10 | 299 | 9.7 | 17.7 | 0.00 | 0.00 | 0.00 | 57 | 1014.9 |
| 20260505151507 | 9 | 279 | 8.0 | 17.7 | 0.00 | 0.00 | 0.00 | 58 | 1014.9 |
| 20260505124525 | 10 | 195 | 3.2 | 9.7 | 0.00 | 0.00 | 0.00 | 49 | 1014.5 |
| 20260505123019 | 10 | 195 | 3.2 | 11.3 | 0.00 | 0.00 | 0.00 | 47 | 1014.4 |
| 20260505121530 | 10 | 207 | 4.8 | 8.0 | 0.00 | 0.00 | 0.00 | 45 | 1014.5 |
| 20260505120027 | 10 | 238 | 1.6 | 9.7 | 0.00 | 0.00 | 0.00 | 44 | 1014.1 |
| 20260505114529 | 10 | 214 | 3.2 | 8.0 | 0.00 | 0.00 | 0.00 | 42 | 1013.9 |
| 20260505113016 | 10 | 217 | 6.4 | 12.9 | 0.00 | 0.00 | 0.00 | 39 | 1014.1 |
| 20260505111528 | 10 | 211 | 3.2 | 11.3 | 0.00 | 0.00 | 0.00 | 38 | 1014.2 |
| 20260505101524 | 11 | 280 | 0.0 | 8.0 | 0.00 | 0.00 | 0.00 | 33 | 1014.0 |
| 20260505100006 | 12 | 304 | 3.2 | 22.5 | 0.00 | 0.00 | 0.00 | 24 | 1013.8 |
| 20260505094506 | 12 | 342 | 9.7 | 24.1 | 0.00 | 0.00 | 0.00 | 23 | 1013.4 |
| 20260505093014 | 11 | 298 | 9.7 | 17.7 | 0.00 | 0.00 | 0.00 | 34 | 1013.6 |
| 20260505091508 | 11 | 294 | 4.8 | 16.1 | 0.00 | 0.00 | 0.00 | 36 | 1013.8 |
| 20260505090005 | 12 | 291 | 4.8 | 16.1 | 0.00 | 0.00 | 0.00 | 38 | 1014.1 |
| 20260505084504 | 12 | 307 | 3.2 | 12.9 | 0.00 | 0.00 | 0.00 | 37 | 1014.1 |
| 20260505083011 | 12 | 228 | 4.8 | 14.5 | 0.00 | 0.00 | 0.00 | 38 | 1014.2 |